McKinleyville, CA

11:46 PM PST on February 27, 2017 (GMT -0800)
Arcata

Weather History for KACV - August, 2013

Change the Weather History Date:

Saturday, August 17, 2013

  Actual Average Record
Temperature  
Mean Temperature 60 °F -  
Max Temperature 71 °F 62 °F 71 °F (2013)
Min Temperature 52 °F 50 °F 48 °F (1996)
Degree Days  
Heating Degree Days 4    
Growing Degree Days 10 (Base 50)    
Moisture  
Dew Point 56 °F    
Average Humidity 86    
Maximum Humidity 100    
Minimum Humidity 68    
Precipitation  
Precipitation 0.00 in - - ()
Sea Level Pressure  
Sea Level Pressure 30.07 in    
Wind  
Wind Speed 5 mph (NNW)    
Max Wind Speed 20 mph    
Max Gust Speed 29 mph    
Visibility 10 miles    
Events      
Averages and records for this station are not official NWS values.
T = Trace of Precipitation, MM = Missing Value Source: NWS Daily Summary

Daily Weather History Graph

Daily Weather History Graph

Search for Another Location

Airport or City:

Trip Planner

Search our weather history database for the weather conditions in past years. The results will help you decide how hot, cold, wet, or windy it might be!

Date:

Astronomy

Aug. 17, 2013 Rise Set
Actual Time 6:28 AM PDT 8:11 PM PDT
Civil Twilight 5:59 AM PDT 8:40 PM PDT
Nautical Twilight 5:23 AM PDT 9:16 PM PDT
Astronomical Twilight 4:45 AM PDT 9:53 PM PDT
Moon 5:32 PM PDT (8/17) 2:37 AM PDT (8/17)
Length of Visible Light 14h 41m
Length of Day
13h 42m
Waxing Gibbous, 85% of the Moon is Illuminated
Aug 17
Waxing Gibbous
Aug 20
Full
Aug 28
Last Quarter
Sep 5
New
Sep 12
First Quarter

Hourly Weather History & Observations

Time (PDT) Temp. Dew Point Humidity Pressure Visibility Wind Dir Wind Speed Gust Speed Precip Events Conditions
12:53 AM 55.0 °F 54.0 °F 96% 30.08 in 10.0 mi Calm Calm - N/A   Clear
1:53 AM 54.0 °F 53.1 °F 97% 30.07 in 10.0 mi Calm Calm - N/A   Clear
2:53 AM 53.1 °F 52.0 °F 96% 30.06 in 10.0 mi Calm Calm - N/A   Clear
3:53 AM 52.0 °F 51.1 °F 97% 30.07 in 10.0 mi Calm Calm - N/A   Clear
4:53 AM 52.0 °F 51.1 °F 97% 30.07 in 10.0 mi Calm Calm - N/A   Clear
5:53 AM 52.0 °F 51.1 °F 97% 30.07 in 10.0 mi Calm Calm - N/A   Clear
6:53 AM 52.0 °F 51.1 °F 97% 30.07 in 10.0 mi Calm Calm - N/A   Clear
7:53 AM 57.9 °F 55.9 °F 93% 30.09 in 10.0 mi Calm Calm - N/A   Clear
8:53 AM 63.0 °F 55.9 °F 78% 30.09 in 10.0 mi NW 3.5 mph - N/A   Clear
9:53 AM 63.0 °F 55.9 °F 78% 30.10 in 10.0 mi WNW 6.9 mph - N/A   Clear
10:53 AM 64.9 °F 55.9 °F 73% 30.10 in 10.0 mi NNW 12.7 mph - N/A   Clear
11:53 AM 66.0 °F 57.0 °F 73% 30.09 in 10.0 mi NNW 16.1 mph - N/A   Clear
12:53 PM 68.0 °F 59.0 °F 73% 30.09 in 10.0 mi NNW 18.4 mph - N/A   Clear
1:53 PM 68.0 °F 59.0 °F 73% 30.09 in 10.0 mi NNW 19.6 mph 28.8 mph N/A   Clear
2:53 PM 69.1 °F 57.9 °F 68% 30.08 in 10.0 mi NNW 18.4 mph 25.3 mph N/A   Clear
3:53 PM 69.1 °F 57.9 °F 68% 30.07 in 10.0 mi NNW 17.3 mph - N/A   Clear
4:53 PM 66.0 °F 57.9 °F 75% 30.06 in 10.0 mi NNW 16.1 mph - N/A   Clear
5:53 PM 64.9 °F 57.9 °F 78% 30.06 in 10.0 mi NNW 13.8 mph - N/A   Clear
6:53 PM 64.9 °F 57.0 °F 75% 30.06 in 10.0 mi NNW 13.8 mph - N/A   Clear
7:53 PM 60.1 °F 57.0 °F 90% 30.06 in 10.0 mi NNW 11.5 mph - N/A   Clear
8:53 PM 61.0 °F 57.0 °F 87% 30.07 in 10.0 mi North 9.2 mph - N/A   Mostly Cloudy
9:49 PM 59.0 °F 55.4 °F 88% 30.06 in 10.0 mi North 5.8 mph - N/A   Scattered Clouds
9:53 PM 59.0 °F 55.0 °F 87% 30.07 in 10.0 mi North 4.6 mph - N/A   Partly Cloudy
10:53 PM 57.0 °F 55.0 °F 93% 30.07 in 10.0 mi NNW 4.6 mph - N/A   Scattered Clouds
11:02 PM 57.2 °F 55.4 °F 94% 30.05 in 10.0 mi North 6.9 mph - N/A   Mostly Cloudy
11:43 PM 57.2 °F 57.2 °F 100% 30.05 in 10.0 mi NNW 5.8 mph - N/A   Overcast
11:53 PM 57.9 °F 57.0 °F 97% 30.06 in 10.0 mi NNW 5.8 mph - N/A   Overcast